Regional Weather Roundup
Issued by NWS San Diego, CA

Home | Current Version | Previous Version | Text Only | Print | Product List | Glossary On
Versions: 1 2 3 4 5 6 7 8 9 10 11 12 13 14 15 16 17 18 19 20 21 22 23 24 25 26 27 28 29 30 31 32 33 34 35 36 37 38 39 40 41 42 43 44 45 46 47 48 49 50
000
ASUS46 KSGX 011003
RWRSGX

SAN DIEGO HOURLY WEATHER ROUNDUP
NATIONAL WEATHER SERVICE SAN DIEGO CA
300 AM PDT FRI AUG 01 2014

NOTE: "FAIR" INDICATES FEW OR NO CLOUDS BELOW 12,000 FEET WITH NO
SIGNIFICANT WEATHER AND/OR OBSTRUCTIONS TO VISIBILITY.

CAZ042-043-060-061-PZZ750-775-011100-

GREATER SAN DIEGO AREA

CITY           SKY/WX    TMP DP  RH WIND       PRES   REMARKS
LINDBERGH FLD  MOCLDY    70  63  78 CALM      29.93S
POINT LOMA       N/A     66  61  84 CALM        N/A
NATIONAL CITY    N/A     70  65  84 CALM      29.92F
CHULA VISTA      N/A     70  66  86 CALM      29.85F
IMPERIAL BEACH CLOUDY    70  64  81 W5        29.92F
BROWN FIELD    CLOUDY    68  63  84 CALM      29.92F
MIRAMAR MCAS   MOCLDY    68  62  81 CALM      29.92S
MONTGOMERY FLD CLOUDY    69  63  81 SE3       29.92F

$$

NORTH SAN DIEGO COUNTY

CITY           SKY/WX    TMP DP  RH WIND       PRES   REMARKS
CAMP PENDLETON CLOUDY    70  63  78 SE3       29.91S
OCEANSIDE AP   CLOUDY    70  64  81 CALM      29.90F
VISTA            N/A     69  64  85 CALM      29.89F
CARLSBAD       CLOUDY    69  63  81 S3        29.91S
DEL MAR          N/A     67  64  89 CALM      29.93S
LA JOLLA SCRIP   N/A     67  64  90 SE1       29.89S
FALLBROOK        N/A     68  68 100 CALM      29.90F
ESCONDIDO        N/A     68  65  89 E2        29.92S
SAN MARCOS       N/A     68  63  85 CALM      29.89S
POWAY            N/A     69  64  85 CALM      29.92S
R. PENASQUITOS   N/A     68  65  88 CALM      29.91S

$$

EAST SAN DIEGO COUNTY

CITY           SKY/WX    TMP DP  RH WIND       PRES   REMARKS
RAMONA         CLEAR     63  60  90 CALM      29.94F
SANTEE LAKES     N/A     69  65  87 CALM      29.92S
GILLESPIE FLD  CLOUDY    70  64  83 CALM      29.93F
LA MESA          N/A     68  65  90 CALM      29.85S
JAMUL            N/A     66  64  93 CALM      29.89S
DESCANSO N       N/A     66  44  45 E1        29.75R
MT. LAGUNA OBS   N/A     72  36  27 NW3       29.78F
CAMPO            N/A     65  53  65 NE5       29.96F

$$

ORANGE COUNTY AND THE LOS ANGELES BASIN

CITY           SKY/WX    TMP DP  RH WIND       PRES   REMARKS
JOHN WAYNE AP  CLOUDY    72  63  73 SE6       29.90F
LAGUNA BEACH     N/A     69  65  86 E2        29.87S
LAKE FOREST FR   N/A     65  61  85 CALM      29.81S
SANTA ANA        N/A     69  65  85 CALM      29.86S
HUNTINGTON BCH   N/A     67  65  92 CALM      29.92F
LOS ALAMITOS   CLOUDY    67  64  92 S5        29.91S
FULLERTON      CLEAR     69  63  81 S6        29.90S
LONG BEACH     CLEAR     68  64  87 SE3       29.90F
L.A. AP        CLEAR     67  63  87 W5        29.91F
L.A. DOWNTOWN  CLEAR     67  62  84 CALM      29.90F

$$

THE INLAND EMPIRE

CITY           SKY/WX    TMP DP  RH WIND       PRES   REMARKS
CORONA         CLEAR     67  63  87 W6        29.92S
CHINO          CLEAR     66  62  87 CALM      29.92F
ONTARIO        CLEAR     71  58  63 SW5       29.91F
RIVERSIDE AP   CLEAR     71  60  68 CALM      29.92S
RIV CYN CREST    N/A     72  66  82 CALM      29.89S
MORENO VALLEY    N/A     70  63  78 E1          N/A
MARCH ARB      CLEAR     68  59  71 CALM      29.94S
HORSETHIEF CYN   N/A     68  55  64 CALM      29.90S
PERRIS           N/A     70  61  72 CALM      29.90S
MENIFEE          N/A     71  64  78 S2        29.98R
HEMET EAST       N/A     70  58  64 CALM      29.87S
FRENCH VALLEY  FAIR      66  61  82 CALM      29.95S
TEMECULA         N/A     67  65  91 CALM      29.90F

$$

SAN BERNARDINO AND RIVERSIDE COUNTY MOUNTAINS

CITY           SKY/WX    TMP DP  RH WIND       PRES   REMARKS
BIG BEAR AP    CLEAR     52  41  66 CALM      30.31S
BIG BEAR SHEA    N/A     53  36  51 CALM      29.92S
ANGELUS OAKS     N/A     66  39  38 MISG      29.74S
PINE COVE        N/A     70  39  32 N3        29.82S

$$

SOUTHERN DESERT INCLUDING THE COACHELLA VALLEY

CITY           SKY/WX    TMP DP  RH WIND       PRES   REMARKS
PALM SPRINGS   CLEAR     92  57  30 NW8       29.81R
THOUSAND PALMS   N/A     91  56  30 S1        29.75S
THERMAL        CLEAR     84  70  62 CALM      29.74S
BLYTHE           N/A    N/A N/A N/A MISG      29.79F
IMPERIAL AP    CLEAR     88  76  67 SE10      29.75R HX  99
EL CENTRO NAS  CLEAR     86  75  69 E6        29.74S HX  95
YUMA AZ        CLOUDY    91  69  48 S7        29.80S HX  96

$$

UPPER DESERT

CITY           SKY/WX    TMP DP  RH WIND       PRES   REMARKS
VICTORVILLE AP CLEAR     75  48  38 S7        29.99S
HESPERIA         N/A     74  55  52 W7        29.91F
APPLE VALLEY     N/A     74  54  48 CALM      30.06S
GRAY BUTTE AP  NOT AVBL
PALMDALE       CLEAR     80  46  30 S9        29.97S
LANCASTER      CLEAR     81  43  26 W13       29.95F
EDWARDS AFB    CLEAR     77  46  33 S10       29.92S
DAGGETT        CLEAR     89  45  21 W14       29.89S
29 PALMS N     CLEAR     85  41  21 N5        29.97S
NEEDLES        PTCLDY    96  56  26 SW7       29.82S

$$

REGIONAL REPORTS

CITY           SKY/WX    TMP DP  RH WIND       PRES   REMARKS
SANTA BARBARA  CLOUDY    65  60  84 E12       29.89R
SANDBERG       CLEAR     78  44  29 N24G30    30.12F
MT. WILSON       N/A     72  37  28 MISG        N/A
LAS VEGAS NV   MOCLDY    90  51  26 NE6       29.88R
PHOENIX AZ     LGT RAIN  83  66  56 S13       29.91F
TIJUANA        CLOUDY    68  61  77 N3        29.94F
ENSENADA NW      N/A     68  32  26 W9        29.88F

$$

OFFSHORE ISLANDS

CITY           SKY/WX    TMP DP  RH WIND       PRES   REMARKS
CATALINA ARPT  FOG       61  59  93 SE3       29.94F VSB<1/4
SAN NICOLAS IS CLOUDY   N/A N/A N/A W18       29.91F HAZE

$$

MARINE AND OFFSHORE BUOY REPORTS

STATION/POSITION SKY/WX   TEMP    WIND        PRES    SWELL
                          AIR SEA DIR/SP/G            HT/PER/DIR
                          (F)     (DEG/KT/KT) (MB)    (FT/S/D)
TANNER BANKS               64 68  300/ 14/ 16 1013.3F
S CLEMENTE BASIN           67 70  290/ 10/ 12 1012.6F   3/300/ 7
SAN NICOLAS IS.               65                N/A     2/180/12
SO. S. ROSA ISLA           63 66  310/ 17/ 21 1012.1R   2/12
W. S. BARBARA CH           60 60  320/ 16/ 19 1011.8R   2/320/14
M. S. BARBARA CH           63      10/  4       N/A
S. MONICA BASIN            66 68   50/  6/  6 1012.5F   3/270/ 6
S PEDRO CHANNEL               69                N/A     2/160/12
DANA POINT                    69                N/A     2/180/11
CMP PENDLETON NS              71                N/A     2/210/13
OCEANSIDE OFFSHR              72                N/A     2/210/17
TORREY PINES OTR              74                N/A     2/210/17
LA JOLLA 1                 69 69  130/  4/  5 1013.0F
MISSION BAY BUOY              72                N/A     2/210/13
SAN DIEGO BAY                 76              1013.5F
POINT LOMA SOUTH              72                N/A     2/180/13

$$




USA.gov is the U.S. government's official web portal to all federal, state and local government web resources and services.